KI5QWQ Weather Reports


time (UTC)temp
C
wind
direction
speed
KPH
gust
KPH
rain 1hr
cm
rain 24hr
cm
rain mn
cm
humidity
%
barometer
mb
20260503035537 -17 122 0.0 1.6 0.00 0.03 0.03 1024.7
20260503035034 -17 101 0.0 3.2 0.00 0.03 0.03 1024.7
20260503034531 -17 89 0.0 3.2 0.00 0.03 0.03 1024.6
20260503034029 -17 120 0.0 3.2 0.00 0.03 0.03 1024.5
20260503033526 -17 75 0.0 3.2 0.00 0.03 0.03 1024.4
20260503033024 -17 120 0.0 3.2 0.00 0.03 0.03 1024.3
20260503032522 -17 109 0.0 1.6 0.00 0.03 0.03 1024.3
20260503032020 -17 57 0.0 3.2 0.00 0.03 0.03 1024.5
20260503031517 -17 203 0.0 3.2 0.00 0.03 0.03 1024.3
20260503031014 -17 126 0.0 3.2 0.00 0.03 0.03 1024.2
20260503030510 -17 50 0.0 1.6 0.00 0.03 0.03 1024.3
20260503030007 -17 89 0.0 3.2 0.00 0.03 0.03 1024.3
20260503025504 -17 89 0.0 3.2 0.00 0.03 0.03 1024.2
20260503025001 -17 130 0.0 3.2 0.00 0.03 0.03 1024.1
20260503024457 -17 114 1.6 3.2 0.00 0.03 0.03 1024.1
20260503023955 -17 125 0.0 3.2 0.00 0.03 0.03 1023.9
20260503023452 -17 93 1.6 3.2 0.00 0.03 0.03 1023.8
20260503022949 -17 104 0.0 1.6 0.00 0.03 0.03 1023.8
20260503022444 -17 119 0.0 1.6 0.00 0.03 0.03 1023.5
20260503021940 -17 134 0.0 3.2 0.00 0.03 0.03 1023.5
20260503021436 -17 157 0.0 3.2 0.00 0.03 0.03 1023.5
20260503020934 -17 71 0.0 1.6 0.00 0.03 0.03 1023.4
20260503020432 -17 75 0.0 1.6 0.00 0.03 0.03 1023.5
20260503015928 -17 129 0.0 1.6 0.00 0.03 0.03 1023.5
20260503015424 -17 153 0.0 1.6 0.00 0.03 0.03 1023.5
20260503014920 -17 230 0.0 1.6 0.00 0.03 0.03 1023.3
20260503014418 -17 140 0.0 3.2 0.00 0.03 0.03 1023.3
20260503013916 -17 104 0.0 1.6 0.00 0.03 0.03 1023.4
20260503013412 -17 25 0.0 1.6 0.00 0.03 0.03 1023.4
20260503012910 -17 212 0.0 1.6 0.00 0.03 0.03 1023.3
20260503012408 -17 209 0.0 3.2 0.00 0.03 0.03 1023.3
20260503011904 -17 153 0.0 1.6 0.00 0.03 0.03 1023.1
20260503011401 -17 217 0.0 1.6 0.00 0.03 0.03 1023.1
20260503010857 -17 235 0.0 1.6 0.00 0.03 0.03 1023.1
20260503010354 -17 217 0.0 3.2 0.00 0.03 0.03 1022.9
20260503005851 -17 225 0.0 1.6 0.00 0.03 0.03 1023.1
20260503005349 -17 129 0.0 1.6 0.00 0.03 0.03 1023.0
20260503004844 -17 255 0.0 3.2 0.00 0.03 0.03 1023.1
20260503004342 -17 233 0.0 3.2 0.00 0.03 0.03 1022.7
20260503003840 -17 124 0.0 1.6 0.00 0.03 0.03 1022.9
20260503003336 -17 160 0.0 3.2 0.00 0.03 0.03 1022.9
20260503002833 -17 117 0.0 3.2 0.00 0.03 0.03 1022.7
20260503002331 -17 195 0.0 3.2 0.00 0.03 0.03 1022.8
20260503001827 -17 142 0.0 3.2 0.00 0.03 0.03 1022.9
20260503001323 -17 129 0.0 1.6 0.00 0.03 0.03 1022.8
20260503000821 -17 100 1.6 4.8 0.00 0.03 0.03 1022.9
20260503000319 -17 129 0.0 1.6 0.00 0.03 0.03 1022.7
20260502235815 -17 197 0.0 3.2 0.00 0.03 0.03 1022.7
20260502235312 -17 170 4.8 4.8 0.00 0.03 0.03 1022.6
20260502234809 -17 117 0.0 3.2 0.00 0.03 0.03 1022.8
20260502234306 -17 142 0.0 4.8 0.00 0.03 0.03 1022.6
20260502233802 -17 279 0.0 3.2 0.00 0.03 0.03 1022.6
20260502233259 -17 321 0.0 4.8 0.00 0.03 0.03 1022.6
20260502232755 -17 313 0.0 4.8 0.00 0.03 0.03 1022.6
20260502232252 -17 18 4.8 6.4 0.00 0.03 0.03 1022.6
20260502231748 -17 299 0.0 3.2 0.00 0.03 0.03 1022.6
20260502231246 -17 74 4.8 6.4 0.00 0.03 0.03 1022.6
20260502230745 -17 302 3.2 4.8 0.00 0.03 0.03 1022.6
20260502230243 -17 292 4.8 9.7 0.00 0.03 0.03 1022.4
20260502225739 -17 312 3.2 4.8 0.00 0.03 0.03 1022.5
20260502225236 -17 37 0.0 1.6 0.00 0.03 0.03 1022.5
20260502224732 -17 143 0.0 4.8 0.00 0.03 0.03 1022.4
20260502224229 -17 321 3.2 4.8 0.00 0.03 0.03 1022.5
20260502223726 -17 176 1.6 3.2 0.00 0.03 0.03 1022.7
20260502223224 -17 54 1.6 6.4 0.00 0.03 0.03 1022.6
20260502222722 -17 114 3.2 4.8 0.00 0.03 0.03 1022.7
20260502222218 -17 148 0.0 3.2 0.00 0.03 0.03 1022.7
20260502221714 -17 145 4.8 4.8 0.00 0.03 0.03 1022.8
20260502221211 -17 316 3.2 3.2 0.00 0.03 0.03 1022.7
20260502220707 -17 241 1.6 3.2 0.00 0.03 0.03 1022.8
20260502220203 -17 186 3.2 4.8 0.00 0.03 0.03 1022.7
20260502215701 -17 340 1.6 3.2 0.00 0.03 0.03 1022.8
20260502215157 -17 0 1.6 4.8 0.00 0.03 0.03 1022.8
20260502214655 -17 335 4.8 8.0 0.00 0.03 0.03 1023.0
20260502214152 -17 295 1.6 6.4 0.00 0.03 0.03 1022.9
20260502213649 -17 295 1.6 6.4 0.00 0.03 0.03 1023.0
20260502213146 -17 295 1.6 6.4 0.00 0.03 0.03 1023.2
20260502212645 -17 344 1.6 3.2 0.00 0.03 0.03 1023.1
20260502212143 -17 230 1.6 6.4 0.00 0.03 0.03 1023.3
20260502211638 -17 339 3.2 4.8 0.00 0.03 0.03 1023.2
20260502211135 -17 84 4.8 8.0 0.00 0.03 0.03 1023.4
20260502210633 -17 354 1.6 4.8 0.00 0.03 0.03 1023.6
20260502210130 -17 56 4.8 17.7 0.00 0.03 0.03 1023.7
20260502205626 -17 124 1.6 11.3 0.00 0.03 0.03 1023.8
20260502205123 -17 340 3.2 4.8 0.00 0.03 0.03 1023.9
20260502204620 -17 19 0.0 4.8 0.00 0.03 0.03 1024.1
20260502204118 -17 150 0.0 1.6 0.00 0.03 0.03 1024.0
20260502203615 -17 25 4.8 6.4 0.00 0.03 0.03 1024.2
20260502203112 -17 128 6.4 11.3 0.00 0.03 0.03 1023.9
20260502202608 -17 59 4.8 8.0 0.00 0.03 0.03 1024.1
20260502202106 -17 49 0.0 4.8 0.00 0.03 0.03 1024.1
20260502201602 -17 294 1.6 3.2 0.00 0.03 0.03 1024.2
20260502201058 -17 294 1.6 3.2 0.00 0.03 0.03 1024.1
20260502200554 -17 294 1.6 3.2 0.00 0.03 0.03 1024.3
20260502200052 -17 293 4.8 14.5 0.00 0.03 0.03 1024.3
20260502195550 -17 306 4.8 8.0 0.00 0.03 0.03 1024.2
20260502195045 -17 317 6.4 9.7 0.00 0.03 0.03 1024.2
20260502194542 -17 42 1.6 8.0 0.00 0.03 0.03 1024.3
20260502194038 -17 316 4.8 6.4 0.00 0.03 0.03 1024.2
20260502193536 -17 300 4.8 8.0 0.00 0.03 0.03 1024.3
20260502193032 -17 313 3.2 11.3 0.00 0.03 0.03 1024.4
20260502192528 -17 304 3.2 6.4 0.00 0.03 0.03 1024.3
20260502192026 -17 343 4.8 8.0 0.00 0.03 0.03 1024.4
20260502191523 -17 36 0.0 3.2 0.00 0.03 0.03 1024.4
20260502191020 -17 179 3.2 6.4 0.00 0.03 0.03 1024.4
20260502190518 -17 313 3.2 6.4 0.00 0.03 0.03 1024.4
20260502190015 -17 243 3.2 6.4 0.00 0.03 0.03 1024.3
20260502185509 -17 319 6.4 8.0 0.00 0.03 0.03 1024.6
20260502185007 -17 273 4.8 9.7 0.00 0.03 0.03 1024.6
20260502184502 -17 7 3.2 6.4 0.00 0.03 0.03 1024.5
20260502183959 -17 354 1.6 3.2 0.00 0.03 0.03 1024.6
20260502183455 -17 89 3.2 6.4 0.00 0.03 0.03 1024.7
20260502182950 -17 161 4.8 4.8 0.00 0.03 0.03 1024.7
20260502182446 -17 341 6.4 8.0 0.00 0.03 0.03 1024.8
20260502181942 -17 132 1.6 4.8 0.00 0.03 0.03 1025.1
20260502181440 -17 292 3.2 4.8 0.00 0.03 0.03 1025.3
20260502180939 -17 246 0.0 4.8 0.00 0.03 0.03 1025.3
20260502180436 -17 352 3.2 4.8 0.00 0.03 0.03 1025.4
20260502170354 -17 323 3.2 4.8 0.00 0.03 0.03 1026.2
20260502164342 -17 214 0.0 3.2 0.00 0.03 0.03 1026.5
20260502163838 -17 214 0.0 3.2 0.00 0.03 0.03 1026.5
20260502163334 -17 280 4.8 9.7 0.00 0.03 0.03 1026.5
20260502162832 -17 138 1.6 11.3 0.00 0.03 0.03 1026.5
20260502162328 -17 8 3.2 8.0 0.00 0.03 0.03 1026.6
20260502161826 -17 0 3.2 8.0 0.00 0.03 0.03 1026.7
20260502161321 -17 13 4.8 6.4 0.00 0.03 0.03 1026.6
20260502160820 -17 14 0.0 4.8 0.00 0.03 0.03 1026.7
20260502160318 -17 103 0.0 4.8 0.00 0.03 0.03 1026.7
20260502152247 -17 89 0.0 8.0 0.00 0.03 0.03 1026.7
20260502151744 -17 269 0.0 3.2 0.00 0.03 0.03 1026.7
20260502151241 -17 13 0.0 4.8 0.00 0.03 0.03 1026.6
20260502150739 -17 83 3.2 8.0 0.00 0.03 0.03 1026.6
20260502150236 -17 39 1.6 4.8 0.00 0.03 0.03 1026.7
20260502130624 -17 0.0 0.0 0.00 0.00 0.00 1025.5
20260502130122 -17 0.0 0.0 0.00 0.00 0.00 1025.5
20260502123608 -17 0.0 0.0 0.00 0.00 0.00 1025.0
20260502123104 -17 0.0 0.0 0.00 0.00 0.00 1025.1
20260502122600 -17 0.0 0.0 0.00 0.00 0.00 1025.1
20260502122057 -17 0.0 0.0 0.00 0.00 0.00 1024.9
20260502121555 -17 0.0 0.0 0.00 0.00 0.00 1024.8
20260502121053 -17 0.0 0.0 0.00 0.00 0.00 1024.9
20260502120548 -17 0.0 0.0 0.00 0.00 0.00 1024.5
20260502115544 -17 0.0 0.0 0.00 0.00 0.00 1024.5
20260502115039 -17 0.0 0.0 0.00 0.00 0.00 1024.3
20260502114536 -17 0.0 0.0 0.00 0.00 0.00 1024.1
20260502114033 -17 0.0 0.0 0.00 0.00 0.00 1024.1
20260502113531 -17 0.0 0.0 0.00 0.00 0.00 1024.1
20260502113029 -17 0.0 0.0 0.00 0.00 0.00 1024.1
20260502112527 -17 0.0 0.0 0.00 0.00 0.00 1024.1
20260502112024 -17 0.0 0.0 0.00 0.00 0.00 1024.1
20260502111521 -17 0.0 0.0 0.00 0.00 0.00 1024.0
20260502111019 -17 0.0 0.0 0.00 0.00 0.00 1023.8
20260502110516 -17 0.0 0.0 0.00 0.00 0.00 1023.7
20260502110014 -17 0.0 0.0 0.00 0.00 0.00 1023.7
20260502105510 -17 0.0 0.0 0.00 0.00 0.00 1023.5
20260502105008 -17 0.0 0.0 0.00 0.00 0.00 1023.2
20260502104505 -17 0.0 0.0 0.00 0.00 0.00 1023.2
20260502104003 -17 0.0 0.0 0.00 0.00 0.00 1023.0
20260502103500 -17 0.0 0.0 0.00 0.00 0.00 1022.9
20260502102956 -17 0.0 0.0 0.00 0.00 0.00 1022.8
20260502102454 -17 0.0 0.0 0.00 0.00 0.00 1022.6
20260502101950 -17 0.0 0.0 0.00 0.00 0.00 1022.7
20260502101449 -17 0.0 0.0 0.00 0.00 0.00 1022.7
20260502100947 -17 0.0 0.0 0.00 0.00 0.00 1022.7
20260502100445 -17 0.0 0.0 0.00 0.00 0.00 1022.6
20260502091420 -17 0.0 0.0 0.00 0.00 0.00 1022.6
20260502090917 -17 0.0 0.0 0.00 0.00 0.00 1022.5
20260502090414 -17 0.0 0.0 0.00 0.00 0.00 1022.3
20260502071309 -17 0.0 0.0 0.00 0.00 0.00 1022.3
20260502070807 -17 0.0 0.0 0.00 0.00 0.00 1022.3
20260502070304 -17 0.0 0.0 0.00 0.00 0.00 1022.2
20260502065803 -17 0.0 0.0 0.00 0.00 0.00 1022.5
20260502065300 -17 0.0 0.0 0.00 0.00 0.00 1022.4
20260502064758 -17 0.0 0.0 0.00 0.00 0.00 1022.3
20260502064256 -17 0.0 0.0 0.00 0.00 0.00 1022.1
20260502063753 -17 0.0 0.0 0.00 0.00 0.00 1022.1
20260502063251 -17 0.0 0.0 0.00 0.00 0.00 1022.2
20260502062748 -17 0.0 0.0 0.00 0.00 0.00 1022.2
20260502062245 -17 0.0 0.0 0.00 0.00 0.00 1022.2
20260502061744 -17 0.0 0.0 0.00 0.00 0.00 1022.1
20260502061241 -17 0.0 0.0 0.00 0.00 0.00 1021.9
20260502060736 -17 0.0 0.0 0.00 0.00 0.00 1021.8
20260502060232 -17 0.0 0.0 0.00 0.00 0.00 1022.1
20260502055731 -17 0.0 0.0 0.00 0.00 0.00 1022.2
20260502055228 10 50 0.0 0.0 0.00 0.00 0.00 99 1022.2
20260502054727 10 50 0.0 0.0 0.00 0.00 0.00 99 1022.2
20260502054224 10 50 0.0 0.0 0.00 0.00 0.00 99 1022.2
20260502053721 10 50 0.0 0.0 0.00 0.00 0.00 99 1022.5
20260502053218 10 50 0.0 0.0 0.00 0.00 0.00 99 1022.2
20260502052716 10 50 0.0 0.0 0.00 0.00 0.00 99 1022.1
20260502052214 10 50 0.0 0.0 0.00 0.00 0.00 99 1022.1
20260502051712 10 50 0.0 0.0 0.00 0.00 0.00 99 1022.1
20260502051210 10 50 0.0 0.0 0.00 0.00 0.00 99 1021.9
20260502050706 10 50 0.0 0.0 0.00 0.00 0.00 99 1021.8
20260502050202 10 50 0.0 0.0 0.00 0.00 0.00 99 1021.8
20260502045659 11 50 0.0 0.0 0.00 4.06 4.06 99 1021.9
20260502045157 11 50 0.0 0.0 0.00 4.06 4.06 99 1021.7
20260502044653 11 50 0.0 0.0 0.00 4.06 4.06 99 1021.8
20260502044149 11 50 0.0 0.0 0.00 4.06 4.06 99 1022.1
20260502043647 11 50 0.0 0.0 0.00 4.06 4.06 99 1021.8
20260502043145 11 50 0.0 0.0 0.00 4.06 4.06 99 1021.7
20260502042644 11 41 0.0 0.0 0.00 4.06 4.06 99 1021.6
20260502042141 11 67 0.0 0.0 0.00 4.06 4.06 99 1021.6
20260502041639 11 67 0.0 0.0 0.00 4.06 4.06 99 1021.6
20260502041136 11 67 0.0 0.0 0.00 4.06 4.06 99 1021.8
20260502040632 11 67 0.0 0.0 0.00 4.06 4.06 99 1021.7
20260502040130 11 67 0.0 0.0 0.00 4.06 4.06 99 1021.6